• In Deutschland
  • Länderverzeichnis
  • Für 7 Tage
  • Wassertemperatur
  • Satellitenkarten
  • Wetterkarte
  • Widgets
  • user-avatar
    Anmelden

    Stündliche Wetter Tusla

    Heute, 22 August, Mittwoch

    Zeit Temperatur Niederschläge Wind Luftdruck Luftfeuchtigkeit
    00:00 +20°C° 0 mm 1 m/S 723 mmHg 77%
    01:00 +20°C° 0 mm 1 m/S 723 mmHg 78%
    02:00 +19°C° 0 mm 1 m/S 723 mmHg 79%
    03:00 +19°C° 0 mm 1 m/S 723 mmHg 80%
    04:00 +19°C° 0 mm 1 m/S 723 mmHg 80%
    05:00 +20°C° 0 mm 1 m/S 723 mmHg 77%
    06:00 +22°C° 0 mm 1 m/S 723 mmHg 74%
    07:00 +23°C° 0 mm 1 m/S 723 mmHg 70%
    08:00 +25°C° 0,2 mm 1 m/S 724 mmHg 63%
    09:00 +28°C° 0,2 mm 1 m/S 724 mmHg 56%
    10:00 +30°C° 0,2 mm 1 m/S 724 mmHg 48%
    11:00 +31°C° 0,2 mm 2 m/S 724 mmHg 46%
    12:00 +31°C° 0,2 mm 2 m/S 724 mmHg 43%
    13:00 +33°C° 0,2 mm 3 m/S 723 mmHg 41%
    14:00 +33°C° 0 mm 3 m/S 723 mmHg 41%
    15:00 +33°C° 0 mm 3 m/S 723 mmHg 41%
    16:00 +31°C° 0 mm 2 m/S 723 mmHg 41%
    17:00 +29°C° 0 mm 2 m/S 722 mmHg 49%
    18:00 +27°C° 0 mm 2 m/S 722 mmHg 57%
    19:00 +24°C° 0 mm 1 m/S 722 mmHg 65%
    20:00 +23°C° 0 mm 1 m/S 722 mmHg 67%
    21:00 +22°C° 0 mm 1 m/S 722 mmHg 70%
    22:00 +22°C° 0 mm 1 m/S 722 mmHg 72%
    23:00 +21°C° 0 mm 1 m/S 722 mmHg 73%

    Morgen, 23 August, Donnerstag

    Zeit Temperatur Niederschläge Wind Luftdruck Luftfeuchtigkeit
    00:00 +21°C° 0 mm 1 m/S 722 mmHg 74%
    01:00 +20°C° 0 mm 1 m/S 722 mmHg 75%
    02:00 +20°C° 0 mm 1 m/S 722 mmHg 76%
    03:00 +20°C° 0 mm 1 m/S 722 mmHg 76%
    04:00 +19°C° 0 mm 1 m/S 722 mmHg 77%
    05:00 +21°C° 0 mm 1 m/S 722 mmHg 72%
    06:00 +22°C° 0 mm 1 m/S 722 mmHg 68%
    07:00 +24°C° 0 mm 1 m/S 722 mmHg 64%
    08:00 +26°C° 0 mm 1 m/S 722 mmHg 56%
    09:00 +28°C° 0 mm 1 m/S 722 mmHg 48%
    10:00 +31°C° 0 mm 2 m/S 722 mmHg 40%
    11:00 +31°C° 0 mm 2 m/S 722 mmHg 38%
    12:00 +32°C° 0 mm 2 m/S 722 mmHg 36%
    13:00 +33°C° 0 mm 3 m/S 721 mmHg 34%
    14:00 +33°C° 0 mm 3 m/S 721 mmHg 36%
    15:00 +31°C° 0 mm 3 m/S 721 mmHg 38%
    16:00 +31°C° 0 mm 3 m/S 720 mmHg 40%
    17:00 +29°C° 0 mm 2 m/S 720 mmHg 47%
    18:00 +26°C° 0 mm 2 m/S 720 mmHg 55%
    19:00 +24°C° 0 mm 1 m/S 720 mmHg 62%
    20:00 +23°C° 0 mm 1 m/S 720 mmHg 64%
    21:00 +22°C° 0 mm 1 m/S 720 mmHg 67%
    22:00 +21°C° 0 mm 1 m/S 720 mmHg 69%
    23:00 +21°C° 0 mm 1 m/S 720 mmHg 70%

    übermorgen, 24 August, Freitag

    Zeit Temperatur Niederschläge Wind Luftdruck Luftfeuchtigkeit
    00:00 +20°C° 0 mm 1 m/S 720 mmHg 72%
    01:00 +20°C° 0 mm 1 m/S 719 mmHg 73%
    02:00 +20°C° 0 mm 1 m/S 719 mmHg 74%
    03:00 +19°C° 0 mm 1 m/S 719 mmHg 74%
    04:00 +19°C° 0 mm 1 m/S 719 mmHg 75%
    05:00 +20°C° 0 mm 1 m/S 719 mmHg 71%
    06:00 +22°C° 0 mm 1 m/S 719 mmHg 67%
    07:00 +23°C° 0 mm 1 m/S 719 mmHg 63%
    08:00 +26°C° 0,1 mm 1 m/S 719 mmHg 56%
    09:00 +28°C° 0,1 mm 1 m/S 719 mmHg 49%
    10:00 +29°C° 0,1 mm 0 m/S 720 mmHg 43%
    11:00 +32°C° 0,1 mm 1 m/S 719 mmHg 40%
    12:00 +32°C° 0,1 mm 1 m/S 719 mmHg 37%
    13:00 +33°C° 0,1 mm 1 m/S 719 mmHg 34%
    14:00 +32°C° 0,1 mm 1 m/S 718 mmHg 38%
    15:00 +30°C° 0,1 mm 1 m/S 718 mmHg 41%
    16:00 +29°C° 0,1 mm 1 m/S 718 mmHg 44%
    17:00 +27°C° 0,1 mm 1 m/S 717 mmHg 51%
    18:00 +26°C° 0,1 mm 1 m/S 717 mmHg 57%
    19:00 +24°C° 0,1 mm 1 m/S 717 mmHg 63%
    20:00 +23°C° 0,2 mm 1 m/S 717 mmHg 68%
    21:00 +21°C° 0,2 mm 2 m/S 717 mmHg 73%
    22:00 +20°C° 0,2 mm 2 m/S 717 mmHg 77%
    23:00 +19°C° 0,2 mm 2 m/S 717 mmHg 79%

    25 August, Samstag

    Zeit Temperatur Niederschläge Wind Luftdruck Luftfeuchtigkeit
    00:00 +18°C° 0,2 mm 2 m/S 717 mmHg 81%
    01:00 +18°C° 0,2 mm 2 m/S 717 mmHg 82%
    02:00 +18°C° 0 mm 2 m/S 717 mmHg 83%
    03:00 +17°C° 0 mm 2 m/S 717 mmHg 83%
    04:00 +18°C° 0 mm 1 m/S 717 mmHg 83%
    05:00 +19°C° 0 mm 1 m/S 717 mmHg 79%
    06:00 +20°C° 0 mm 1 m/S 717 mmHg 74%
    07:00 +22°C° 0 mm 1 m/S 718 mmHg 70%
    08:00 +24°C° 0 mm 1 m/S 718 mmHg 61%
    09:00 +27°C° 0 mm 1 m/S 718 mmHg 52%
    10:00 +29°C° 0 mm 1 m/S 718 mmHg 43%
    11:00 +30°C° 0 mm 1 m/S 718 mmHg 40%
    12:00 +31°C° 0 mm 1 m/S 718 mmHg 37%
    13:00 +31°C° 0 mm 1 m/S 717 mmHg 35%
    14:00 +31°C° 0,2 mm 2 m/S 717 mmHg 39%
    15:00 +30°C° 0,2 mm 2 m/S 716 mmHg 43%
    16:00 +29°C° 0,2 mm 2 m/S 716 mmHg 48%
    17:00 +27°C° 0,2 mm 2 m/S 716 mmHg 56%
    18:00 +24°C° 0,2 mm 1 m/S 716 mmHg 65%
    19:00 +22°C° 0,2 mm 1 m/S 716 mmHg 73%
    20:00 +21°C° 0,6 mm 1 m/S 716 mmHg 79%
    21:00 +20°C° 0,6 mm 1 m/S 716 mmHg 85%
    22:00 +18°C° 0,6 mm 1 m/S 716 mmHg 91%
    23:00 +18°C° 0,1 mm 1 m/S 716 mmHg 92%

    26 August, Sonntag

    Zeit Temperatur Niederschläge Wind Luftdruck Luftfeuchtigkeit
    00:00 +18°C° 0,1 mm 1 m/S 716 mmHg 93%
    01:00 +18°C° 0,1 mm 1 m/S 716 mmHg 95%
    02:00 +16°C° 0,1 mm 1 m/S 716 mmHg 95%
    03:00 +16°C° 0,1 mm 1 m/S 717 mmHg 95%
    04:00 +16°C° 0,1 mm 2 m/S 717 mmHg 95%
    05:00 +16°C° 0,1 mm 2 m/S 717 mmHg 95%
    06:00 +15°C° 0,1 mm 2 m/S 717 mmHg 94%
    07:00 +15°C° 0,1 mm 2 m/S 718 mmHg 94%
    08:00 +15°C° 0,1 mm 2 m/S 718 mmHg 92%
    09:00 +15°C° 0,1 mm 2 m/S 718 mmHg 90%
    10:00 +15°C° 0,1 mm 2 m/S 718 mmHg 88%
    11:00 +15°C° 0,6 mm 2 m/S 718 mmHg 89%
    12:00 +15°C° 0,6 mm 2 m/S 719 mmHg 89%
    13:00 +15°C° 0,6 mm 2 m/S 719 mmHg 90%
    14:00 +15°C° 1,5 mm 2 m/S 719 mmHg 92%
    15:00 +14°C° 1,5 mm 2 m/S 719 mmHg 93%
    16:00 +13°C° 1,5 mm 2 m/S 719 mmHg 95%
    17:00 +13°C° 0,2 mm 2 m/S 719 mmHg 95%
    18:00 +13°C° 0,2 mm 2 m/S 720 mmHg 96%
    19:00 +13°C° 0,2 mm 2 m/S 720 mmHg 96%
    20:00 +12°C° 0 mm 2 m/S 720 mmHg 96%
    21:00 +12°C° 0 mm 2 m/S 721 mmHg 96%
    22:00 +12°C° 0 mm 2 m/S 721 mmHg 95%
    23:00 +12°C° 0 mm 1 m/S 721 mmHg 95%

    27 August, Montag

    Zeit Temperatur Niederschläge Wind Luftdruck Luftfeuchtigkeit
    00:00 +11°C° 0 mm 1 m/S 721 mmHg 94%
    01:00 +11°C° 0 mm 1 m/S 721 mmHg 94%
    02:00 +10°C° 0 mm 1 m/S 721 mmHg 94%
    03:00 +10°C° 0 mm 1 m/S 721 mmHg 93%
    04:00 +9°C° 0 mm 1 m/S 721 mmHg 93%
    05:00 +10°C° 0 mm 1 m/S 722 mmHg 91%
    06:00 +10°C° 0 mm 2 m/S 722 mmHg 89%
    07:00 +12°C° 0 mm 2 m/S 722 mmHg 87%
    08:00 +14°C° 0 mm 2 m/S 723 mmHg 75%
    09:00 +16°C° 0 mm 3 m/S 723 mmHg 64%
    10:00 +17°C° 0 mm 3 m/S 723 mmHg 52%
    11:00 +18°C° 0 mm 3 m/S 723 mmHg 49%
    12:00 +19°C° 0 mm 3 m/S 723 mmHg 46%
    13:00 +20°C° 0 mm 3 m/S 723 mmHg 43%
    14:00 +20°C° 0 mm 3 m/S 723 mmHg 43%
    15:00 +20°C° 0 mm 3 m/S 723 mmHg 43%
    16:00 +20°C° 0 mm 3 m/S 723 mmHg 42%
    17:00 +18°C° 0 mm 2 m/S 723 mmHg 50%
    18:00 +16°C° 0 mm 1 m/S 723 mmHg 57%
    19:00 +14°C° 0 mm 1 m/S 723 mmHg 64%
    20:00 +13°C° 0 mm 1 m/S 723 mmHg 66%
    21:00 +12°C° 0 mm 1 m/S 723 mmHg 68%
    22:00 +11°C° 0 mm 1 m/S 724 mmHg 70%
    23:00 +11°C° 0 mm 1 m/S 724 mmHg 71%
    Mehr zeigen